You are listening to:
YSBK ATIS - Bankstown, New South Wales, Australia

YSSY 171830Z 03006KT CAVOK 17/11 Q1014

If stream doesn't start automatically press the play button
If stream stops then reload player then press play